Weather History for KROC - December, 2013

Change the Weather History Date:

Saturday, December 21, 2013

  Actual Average Record
Temperature  
Mean Temperature 43 °F 28 °F  
Max Temperature 54 °F 35 °F 62 °F (1895)
Min Temperature 32 °F 22 °F -4 °F (1879)
Degree Days  
Heating Degree Days 22 37  
Month to date heating degree days 754 706  
Since 1 July heating degree days 2126 2074  
Cooling Degree Days 0 0  
Month to date cooling degree days 0 0  
Year to date cooling degree days 660 539  
Moisture  
Dew Point 39 °F    
Average Humidity 92    
Maximum Humidity 100    
Minimum Humidity 83    
Precipitation  
Precipitation 0.71 in 0.08 in 1.03 in (1905)
Month to date precipitation 2.20 1.82  
Year to date precipitation 35.95 33.46  
Snow  
Snow 0.00 in 0.80 in 6.40 in (2008)
Month to date snowfall 18.0 13.8  
Since 1 July snowfall 31.5 21.2  
Snow Depth 1.00 in    
Sea Level Pressure  
Sea Level Pressure 29.81 in    
Wind  
Wind Speed 9 mph (NNE)    
Max Wind Speed 21 mph    
Max Gust Speed 26 mph    
Visibility 5 miles    
Events Rain    
T = Trace of Precipitation, MM = Missing Value Source: NWS Daily Summary

Daily Weather History Graph

Daily Weather History Graph

Search for Another Location

Airport or City:

Trip Planner

Search our weather history database for the weather conditions in past years. The results will help you decide how hot, cold, wet, or windy it might be!

Date:

Astronomy

Dec. 21, 2013 Rise Set
Actual Time 7:39 AM EST 4:38 PM EST
Civil Twilight 7:06 AM EST 5:11 PM EST
Nautical Twilight 6:30 AM EST 5:47 PM EST
Astronomical Twilight 5:56 AM EST 6:21 PM EST
Moon 8:59 PM EST (12/21) 9:58 AM EST (12/21)
Length of Visible Light 10h 04m
Length of Day
8h 59m
Waning Gibbous, 84% of the Moon is Illuminated
Dec 21
Waning Gibbous
Dec 25
Last Quarter
Jan 1
New
Jan 7
First Quarter
Jan 15
Full

Hourly Weather History & Observations

Time (EST) Temp. Windchill Dew Point Humidity Pressure Visibility Wind Dir Wind Speed Gust Speed Precip Events Conditions
12:03 AM 37.4 °F 34.9 °F 35.6 °F 93% 29.78 in 3.0 mi Variable 3.5 mph - 0.01 in Rain Light Rain
12:54 AM 37.9 °F - 37.9 °F 100% 29.79 in 3.0 mi Calm Calm - 0.02 in   Overcast
1:15 AM 37.4 °F - 37.4 °F 100% 29.75 in 2.0 mi Calm Calm - N/A   Overcast
1:54 AM 39.9 °F 37.8 °F 39.0 °F 97% 29.77 in 4.0 mi West 3.5 mph - N/A   Overcast
2:54 AM 46.9 °F - 46.0 °F 97% 29.76 in 3.0 mi SW 9.2 mph - 0.00 in Rain Light Rain
3:54 AM 50.0 °F - 48.0 °F 93% 29.75 in 10.0 mi SSW 12.7 mph 18.4 mph 0.00 in   Overcast
4:12 AM 51.8 °F - 48.2 °F 88% 29.73 in 10.0 mi SSW 11.5 mph - N/A   Mostly Cloudy
4:54 AM 52.0 °F - 48.9 °F 89% 29.74 in 10.0 mi SW 15.0 mph 20.7 mph N/A   Overcast
5:09 AM 53.6 °F - 48.2 °F 82% 29.72 in 10.0 mi SW 13.8 mph 21.9 mph N/A   Overcast
5:44 AM 53.6 °F - 48.2 °F 82% 29.72 in 10.0 mi SW 12.7 mph 20.7 mph N/A   Scattered Clouds
5:54 AM 53.1 °F - 48.9 °F 86% 29.74 in 10.0 mi SSW 13.8 mph 21.9 mph N/A   Mostly Cloudy
6:54 AM 54.0 °F - 48.9 °F 83% 29.75 in 10.0 mi SSW 13.8 mph 20.7 mph N/A   Overcast
7:54 AM 53.1 °F - 48.9 °F 86% 29.77 in 10.0 mi SW 11.5 mph - 0.03 in Rain Light Rain
8:24 AM 51.8 °F - 48.2 °F 88% 29.78 in 10.0 mi NNW 11.5 mph 17.3 mph 0.02 in   Overcast
8:35 AM 42.8 °F 36.2 °F 39.2 °F 87% 29.78 in 0.8 mi North 12.7 mph 20.7 mph 0.02 in Rain Light Rain
8:44 AM 39.2 °F 34.2 °F 39.2 °F 100% 29.78 in 0.5 mi North 6.9 mph - 0.02 in Rain Rain
8:54 AM 39.9 °F 32.9 °F 37.9 °F 93% 29.82 in 0.5 mi North 11.5 mph - 0.03 in Rain Light Rain
9:31 AM 37.4 °F - 37.4 °F 100% 29.79 in 1.5 mi Calm Calm - 0.01 in   Overcast
9:54 AM 37.0 °F - 36.0 °F 96% 29.81 in 1.5 mi Calm Calm - 0.01 in   Overcast
10:11 AM 37.4 °F - 37.4 °F 100% 29.78 in 2.0 mi Calm Calm - N/A   Overcast
10:54 AM 37.9 °F - 37.0 °F 97% 29.84 in 2.0 mi Calm Calm - 0.00 in Rain Light Rain
11:18 AM 39.2 °F - 37.4 °F 93% 29.81 in 2.0 mi Calm Calm - 0.02 in Rain Light Rain
11:54 AM 39.0 °F - 37.9 °F 96% 29.84 in 1.5 mi Calm Calm - 0.03 in Rain Light Rain
12:54 PM 39.9 °F 35.1 °F 39.0 °F 97% 29.83 in 1.0 mi North 6.9 mph - 0.04 in Rain Rain
1:54 PM 37.9 °F 32.7 °F 37.0 °F 97% 29.82 in 1.0 mi NNE 6.9 mph - 0.04 in Rain Light Rain
2:54 PM 37.9 °F 32.1 °F 37.0 °F 97% 29.82 in 1.0 mi NNE 8.1 mph - 0.02 in Rain Light Rain
3:54 PM 37.0 °F 28.9 °F 35.1 °F 93% 29.86 in 1.0 mi NNE 12.7 mph - 0.03 in Rain Light Rain
4:54 PM 36.0 °F 27.5 °F 34.0 °F 93% 29.88 in 2.0 mi NE 12.7 mph - 0.03 in Rain Light Rain
5:54 PM 35.1 °F 27.4 °F 34.0 °F 96% 29.89 in 2.0 mi NE 10.4 mph - 0.02 in Rain Light Rain
6:46 PM 35.6 °F 28.6 °F 33.8 °F 93% 29.88 in 2.0 mi ENE 9.2 mph - 0.07 in Rain Light Rain
6:54 PM 34.0 °F 26.6 °F 33.1 °F 96% 29.90 in 3.0 mi ENE 9.2 mph - 0.07 in Rain Light Rain
7:54 PM 34.0 °F 26.6 °F 33.1 °F 96% 29.89 in 4.0 mi ENE 9.2 mph - 0.07 in Rain Light Rain
8:54 PM 34.0 °F 28.0 °F 32.0 °F 92% 29.90 in 5.0 mi ENE 6.9 mph - 0.05 in Rain Light Rain
9:54 PM 33.1 °F 24.4 °F 30.9 °F 92% 29.88 in 5.0 mi NE 11.5 mph - 0.08 in Rain Light Rain
10:54 PM 32.0 °F 20.1 °F 30.9 °F 96% 29.89 in 6.0 mi NE 19.6 mph 26.5 mph 0.08 in Rain Light Rain
11:15 PM 32.0 °F 21.2 °F 30.2 °F 93% 29.85 in 7.0 mi NE 16.1 mph 23.0 mph 0.03 in Rain Light Freezing Rain
11:44 PM 32.0 °F 21.6 °F 30.2 °F 93% 29.83 in 9.0 mi ENE 15.0 mph - 0.06 in Rain Light Freezing Rain
11:54 PM 32.0 °F 22.1 °F 30.0 °F 92% 29.86 in 9.0 mi ENE 13.8 mph - 0.06 in Rain Light Freezing Rain